FW8576 Weather Reports


Display with metric or nautical units.
time (UTC)temp
F
wind
direction
speed
MPH
gust
MPH
rain 1hr
in
rain 24hr
in
rain mn
in
humidity
%
barometer
mb
20260508205257 74 180 0.0 3.0 0.00 0.00 0.00 53 1018.1
20260508204753 75 221 0.0 5.0 0.00 0.00 0.00 53 1018.0
20260508204250 74 223 4.0 7.0 0.00 0.00 0.00 53 1017.9
20260508203746 74 240 0.0 4.0 0.00 0.00 0.00 51 1018.3
20260508203243 75 228 2.0 7.0 0.00 0.00 0.00 51 1017.9
20260508202738 76 220 0.0 5.0 0.00 0.00 0.00 51 1018.3
20260508202236 75 270 0.0 4.0 0.00 0.00 0.00 52 1018.1
20260508201733 75 202 2.0 3.0 0.00 0.00 0.00 50 1018.3
20260508201229 75 197 3.0 5.0 0.00 0.00 0.00 52 1018.3
20260508200726 74 33 2.0 3.0 0.00 0.00 0.00 50 1018.5
20260508200222 73 259 2.0 3.0 0.00 0.00 0.00 50 1018.6
20260508195719 74 225 4.0 6.0 0.00 0.00 0.00 49 1018.5
20260508195215 75 192 3.0 7.0 0.00 0.00 0.00 53 1018.5
20260508194712 76 203 0.0 8.0 0.00 0.00 0.00 51 1018.6
20260508194209 76 245 0.0 4.0 0.00 0.00 0.00 49 1018.6
20260508193706 76 237 8.0 10.0 0.00 0.00 0.00 48 1018.7
20260508193203 75 203 1.0 5.0 0.00 0.00 0.00 48 1019.1
20260508192659 76 234 0.0 2.0 0.00 0.00 0.00 48 1018.9
20260508192156 76 19 0.0 3.0 0.00 0.00 0.00 48 1018.9
20260508191654 77 170 3.0 4.0 0.00 0.00 0.00 51 1018.7
20260508191150 76 12 0.0 6.0 0.00 0.00 0.00 49 1019.1
20260508190648 75 142 2.0 5.0 0.00 0.00 0.00 50 1019.2
20260508190144 75 97 3.0 7.0 0.00 0.00 0.00 53 1019.1
20260508185641 76 253 0.0 6.0 0.00 0.00 0.00 54 1019.0
20260508185138 75 247 2.0 5.0 0.00 0.00 0.00 50 1019.1
20260508184635 75 69 0.0 2.0 0.00 0.00 0.00 52 1019.5
20260508184132 73 192 3.0 4.0 0.00 0.00 0.00 51 1019.9
20260508183629 74 246 3.0 8.0 0.00 0.00 0.00 52 1019.5
20260508183125 75 297 2.0 3.0 0.00 0.00 0.00 50 1019.7
20260508182621 75 253 3.0 5.0 0.00 0.00 0.00 54 1020.0
20260508182118 74 180 0.0 9.0 0.00 0.00 0.00 54 1019.9
20260508181613 73 199 2.0 4.0 0.00 0.00 0.00 52 1020.0
20260508181111 73 270 2.0 4.0 0.00 0.00 0.00 55 1019.9
20260508180607 75 152 6.0 6.0 0.00 0.00 0.00 53 1019.9
20260508180104 75 166 5.0 10.0 0.00 0.00 0.00 51 1019.9
20260508175601 76 12 0.0 2.0 0.00 0.00 0.00 53 1020.1
20260508175058 75 149 0.0 8.0 0.00 0.00 0.00 51 1020.3
20260508174555 74 209 6.0 7.0 0.00 0.00 0.00 49 1020.0
20260508174052 73 321 3.0 9.0 0.00 0.00 0.00 51 1020.0
20260508173549 74 285 1.0 2.0 0.00 0.00 0.00 50 1019.9
20260508173045 73 221 2.0 5.0 0.00 0.00 0.00 52 1020.1
20260508172542 73 67 0.0 5.0 0.00 0.00 0.00 50 1020.2
20260508172039 74 150 3.0 4.0 0.00 0.00 0.00 51 1020.5
20260508171535 73 200 1.0 5.0 0.00 0.00 0.00 52 1020.8
20260508171032 73 228 2.0 5.0 0.00 0.00 0.00 53 1020.9
20260508170529 73 232 4.0 5.0 0.00 0.00 0.00 51 1020.9
20260508170026 73 283 3.0 6.0 0.00 0.00 0.00 50 1020.8
20260508165523 73 254 2.0 4.0 0.00 0.00 0.00 52 1020.8
20260508165020 74 90 4.0 4.0 0.00 0.00 0.00 51 1020.9
20260508164517 72 320 2.0 9.0 0.00 0.00 0.00 54 1021.2
20260508164014 72 120 1.0 3.0 0.00 0.00 0.00 52 1021.1
20260508163511 71 215 1.0 5.0 0.00 0.00 0.00 53 1021.8
20260508163007 73 188 0.0 4.0 0.00 0.00 0.00 53 1021.3
20260508162504 72 66 2.0 3.0 0.00 0.00 0.00 53 1021.7
20260508162001 71 66 3.0 5.0 0.00 0.00 0.00 52 1021.6
20260508161458 71 62 0.0 5.0 0.00 0.00 0.00 52 1021.5
20260508160955 71 59 0.0 3.0 0.00 0.00 0.00 51 1021.5
20260508160454 70 180 1.0 5.0 0.00 0.00 0.00 53 1021.6
20260508155950 71 66 0.0 3.0 0.00 0.00 0.00 53 1021.7
20260508155447 70 23 1.0 11.0 0.00 0.00 0.00 54 1021.8
20260508154944 71 102 3.0 8.0 0.00 0.00 0.00 53 1021.7
20260508154442 70 137 4.0 6.0 0.00 0.00 0.00 53 1021.6
20260508153938 71 225 3.0 4.0 0.00 0.00 0.00 53 1021.7
20260508153435 71 282 2.0 6.0 0.00 0.00 0.00 51 1021.7
20260508152931 71 70 2.0 2.0 0.00 0.00 0.00 53 1021.9
20260508152428 70 108 5.0 5.0 0.00 0.00 0.00 51 1021.9
20260508151925 70 145 1.0 3.0 0.00 0.00 0.00 52 1022.1
20260508151422 69 164 3.0 6.0 0.00 0.00 0.00 53 1021.9
20260508150918 70 154 0.0 6.0 0.00 0.00 0.00 53 1021.9
20260508150415 70 129 3.0 6.0 0.00 0.00 0.00 53 1022.1
20260508145910 71 70 4.0 9.0 0.00 0.00 0.00 53 1021.9
20260508145407 70 97 1.0 7.0 0.00 0.00 0.00 55 1022.1
20260508144904 70 63 0.0 7.0 0.00 0.00 0.00 53 1022.0
20260508144402 70 125 2.0 7.0 0.00 0.00 0.00 55 1022.2
20260508143859 70 113 3.0 4.0 0.00 0.00 0.00 53 1022.3
20260508143356 70 64 3.0 5.0 0.00 0.00 0.00 54 1022.2
20260508142853 69 90 0.0 5.0 0.00 0.00 0.00 53 1022.1
20260508142350 70 180 3.0 5.0 0.00 0.00 0.00 55 1022.2
20260508141846 70 42 3.0 6.0 0.00 0.00 0.00 58 1022.1
20260508141343 69 156 2.0 5.0 0.00 0.00 0.00 57 1022.2
20260508140841 69 117 2.0 6.0 0.00 0.00 0.00 58 1022.2
20260508140337 68 37 2.0 9.0 0.00 0.00 0.00 58 1022.1
20260508135833 68 90 6.0 7.0 0.00 0.00 0.00 57 1022.3
20260508135330 69 74 3.0 5.0 0.00 0.00 0.00 58 1022.5
20260508134826 68 90 5.0 6.0 0.00 0.00 0.00 59 1022.4
20260508134323 68 134 8.0 8.0 0.00 0.00 0.00 61 1022.3
20260508133819 68 186 3.0 4.0 0.00 0.00 0.00 65 1022.2
20260508133317 68 108 3.0 6.0 0.00 0.00 0.00 63 1022.2
20260508132814 67 148 2.0 5.0 0.00 0.00 0.00 68 1022.3
20260508132312 67 63 0.0 5.0 0.00 0.00 0.00 73 1022.2
20260508131808 66 159 0.0 5.0 0.00 0.00 0.00 72 1022.1
20260508131304 65 79 2.0 6.0 0.00 0.00 0.00 73 1021.9
20260508130800 65 81 2.0 5.0 0.00 0.00 0.00 74 1022.0
20260508130258 65 85 0.0 3.0 0.00 0.00 0.00 76 1021.6
20260508125754 64 120 0.0 6.0 0.00 0.00 0.00 75 1021.6
20260508125250 66 180 0.0 4.0 0.00 0.00 0.00 77 1021.9
20260508124749 66 155 0.0 4.0 0.00 0.00 0.00 80 1021.6
20260508124245 65 79 3.0 3.0 0.00 0.00 0.00 80 1021.6
20260508123743 65 90 0.0 4.0 0.00 0.00 0.00 79 1021.7
20260508123241 66 19 2.0 2.0 0.00 0.00 0.00 81 1021.2
20260508122737 65 99 0.0 3.0 0.00 0.00 0.00 85 1021.5
20260508122234 64 74 0.0 2.0 0.00 0.00 0.00 88 1021.5
20260508121731 63 66 0.0 0.0 0.00 0.00 0.00 92 1021.3
20260508121230 61 79 0.0 3.0 0.00 0.00 0.00 94 1021.2
20260508120727 61 90 0.0 0.0 0.00 0.00 0.00 95 1021.3
20260508120225 59 75 0.0 0.0 0.00 0.00 0.00 96 1021.0
20260508115722 59 75 0.0 0.0 0.00 0.00 0.00 97 1020.9
20260508115220 58 90 0.0 2.0 0.00 0.00 0.00 97 1020.5
20260508114716 57 77 1.0 2.0 0.00 0.00 0.00 97 1020.8
20260508114213 57 81 0.0 1.0 0.00 0.00 0.00 97 1020.8
20260508113709 57 0 0.0 0.0 0.00 0.00 0.00 97 1020.6
20260508113208 56 8 0.0 0.0 0.00 0.00 0.00 98 1020.4
20260508112703 56 57 0.0 2.0 0.00 0.00 0.00 98 1020.4
20260508112201 55 352 0.0 0.0 0.00 0.00 0.00 98 1020.4
20260508111657 55 352 0.0 0.0 0.00 0.00 0.00 97 1020.3
20260508111155 55 352 0.0 0.0 0.00 0.00 0.00 97 1020.0
20260508110652 55 8 0.0 0.0 0.00 0.00 0.00 97 1019.9
20260508110149 55 0 0.0 0.0 0.00 0.00 0.00 97 1020.1
20260508105643 55 0 0.0 1.0 0.00 0.00 0.00 97 1019.8
20260508105141 55 353 0.0 1.0 0.00 0.00 0.00 97 1020.1
20260508104638 55 352 0.0 0.0 0.00 0.00 0.00 97 1019.7
20260508104135 55 0 0.0 0.0 0.00 0.00 0.00 97 1019.7
20260508103632 55 0 0.0 0.0 0.00 0.00 0.00 97 1019.4
20260508103129 55 337 0.0 0.0 0.00 0.00 0.00 97 1019.5
20260508102626 55 0 0.0 1.0 0.00 0.00 0.00 96 1019.6
20260508102124 55 0 0.0 0.0 0.00 0.00 0.00 96 1019.4
20260508101621 54 0 0.0 0.0 0.00 0.00 0.00 96 1019.2
20260508101118 55 0 0.0 0.0 0.00 0.00 0.00 96 1019.3
20260508100616 55 0 0.0 0.0 0.00 0.00 0.00 96 1019.3
20260508100114 55 0 0.0 0.0 0.00 0.00 0.00 96 1019.2
20260508095610 56 8 0.0 0.0 0.00 0.00 0.00 95 1019.3
20260508095107 56 0 0.0 0.0 0.00 0.00 0.00 95 1019.0
20260508094604 56 0 0.0 1.0 0.00 0.00 0.00 95 1018.8
20260508094101 56 0 0.0 1.0 0.00 0.00 0.00 95 1018.9
20260508093558 55 0 0.0 0.0 0.00 0.00 0.00 95 1018.7
20260508093056 55 0 0.0 0.0 0.00 0.00 0.00 95 1018.6
20260508092553 56 0 0.0 0.0 0.00 0.00 0.00 95 1018.6
20260508092052 56 342 0.0 1.0 0.00 0.00 0.00 95 1018.6
20260508091549 56 81 0.0 0.0 0.00 0.00 0.00 95 1018.5
20260508091045 56 0 0.0 1.0 0.00 0.00 0.00 95 1018.7
20260508090543 56 0 0.0 0.0 0.00 0.00 0.00 95 1018.5
20260508090039 56 0 0.0 0.0 0.00 0.00 0.00 95 1018.2
20260508085536 56 0 0.0 1.0 0.00 0.00 0.00 95 1018.1
20260508085033 55 14 0.0 1.0 0.00 0.00 0.00 94 1018.2
20260508084530 56 0 0.0 0.0 0.00 0.00 0.00 94 1018.2
20260508084028 56 8 0.0 1.0 0.00 0.00 0.00 94 1018.1
20260508083525 56 0 0.0 0.0 0.00 0.00 0.00 94 1018.3
20260508083021 56 7 0.0 1.0 0.00 0.00 0.00 94 1018.0
20260508082517 56 0 0.0 1.0 0.00 0.00 0.00 93 1018.0
20260508082015 56 66 0.0 1.0 0.00 0.00 0.00 93 1018.3
20260508081512 56 81 0.0 2.0 0.00 0.00 0.00 92 1018.0
20260508081008 56 82 0.0 0.0 0.00 0.00 0.00 92 1017.9
20260508080506 56 82 0.0 0.0 0.00 0.00 0.00 92 1017.8
20260508080003 56 82 0.0 0.0 0.00 0.00 0.00 92 1018.1
20260508075459 57 82 0.0 1.0 0.00 0.00 0.00 92 1017.9
20260508074957 56 82 0.0 2.0 0.00 0.00 0.00 91 1018.1
20260508074455 56 81 0.0 0.0 0.00 0.00 0.00 91 1018.2
20260508073951 57 75 0.0 1.0 0.00 0.00 0.00 91 1018.0
20260508073449 57 74 0.0 1.0 0.00 0.00 0.00 91 1018.1
20260508072946 57 29 0.0 1.0 0.00 0.00 0.00 91 1018.2
20260508072442 57 99 0.0 1.0 0.00 0.00 0.00 90 1018.1
20260508071939 57 90 0.0 1.0 0.00 0.00 0.00 90 1018.3
20260508071438 57 126 0.0 1.0 0.00 0.00 0.00 89 1017.9
20260508070935 57 90 0.0 1.0 0.00 0.00 0.00 89 1018.1
20260508070432 57 90 0.0 0.0 0.00 0.00 0.00 89 1018.1
20260508065930 57 90 0.0 0.0 0.00 0.00 0.00 88 1018.3
20260508065428 57 82 0.0 0.0 0.00 0.00 0.00 88 1018.1
20260508064926 58 209 0.0 0.0 0.00 0.00 0.00 88 1018.1
20260508064423 58 215 0.0 0.0 0.00 0.00 0.00 88 1017.8
20260508063921 58 215 0.0 1.0 0.00 0.00 0.00 87 1018.1
20260508063418 58 262 0.0 1.0 0.00 0.00 0.00 87 1018.1
20260508062915 58 254 0.0 0.0 0.00 0.00 0.00 86 1017.9
20260508062413 58 254 0.0 1.0 0.00 0.00 0.00 86 1017.8
20260508061909 58 253 0.0 2.0 0.00 0.00 0.00 86 1017.9
20260508061407 58 270 0.0 1.0 0.00 0.00 0.00 86 1018.0
20260508060903 58 352 0.0 0.0 0.00 0.00 0.00 86 1018.1
20260508060401 58 90 0.0 0.0 0.00 0.00 0.00 85 1018.1
20260508055901 59 90 0.0 1.0 0.00 0.00 0.00 85 1018.4
20260508055359 59 188 0.0 0.0 0.00 0.00 0.00 85 1018.3
20260508054855 59 81 0.0 0.0 0.00 0.00 0.00 84 1018.2
20260508054353 59 294 0.0 0.0 0.00 0.00 0.00 84 1018.2
20260508053849 60 75 0.0 0.0 0.00 0.00 0.00 83 1018.0
20260508053347 59 74 0.0 2.0 0.00 0.00 0.00 83 1018.0
20260508052844 60 99 0.0 0.0 0.00 0.00 0.00 83 1018.3
20260508052342 60 99 0.0 0.0 0.00 0.00 0.00 82 1018.0
20260508051837 60 99 0.0 0.0 0.00 0.00 0.00 81 1018.0
20260508051333 60 77 2.0 2.0 0.00 0.00 0.00 81 1018.0
20260508050829 61 90 0.0 1.0 0.00 0.00 0.00 80 1018.2
20260508050327 61 0 0.0 0.0 0.00 0.00 0.00 79 1018.0
20260508045822 61 79 2.0 2.0 0.00 0.00 0.00 79 1017.9
20260508045320 62 195 0.0 1.0 0.00 0.00 0.00 78 1017.8
20260508044818 62 166 1.0 1.0 0.00 0.00 0.00 78 1017.9
20260508044314 62 103 1.0 1.0 0.00 0.00 0.00 77 1018.0
20260508043810 63 78 2.0 2.0 0.00 0.00 0.00 76 1017.9
20260508043308 62 109 0.0 2.0 0.00 0.00 0.00 77 1018.0
20260508042804 63 90 0.0 3.0 0.00 0.00 0.00 76 1017.7
20260508042306 63 14 3.0 3.0 0.00 0.00 0.00 76 1017.5
20260508041758 63 114 2.0 2.0 0.00 0.00 0.00 76 1017.5
20260508041255 63 352 3.0 3.0 0.00 0.00 0.00 77 1017.5
20260508040751 63 139 0.0 3.0 0.00 0.00 0.00 78 1017.7
20260508040249 63 60 0.0 2.0 0.00 0.00 0.00 78 1017.6
20260508035746 64 106 0.0 4.0 0.00 0.86 0.86 78 1017.7
20260508035243 64 139 0.0 2.0 0.00 0.86 0.86 77 1017.6
20260508034740 64 172 0.0 2.0 0.00 0.86 0.86 77 1017.4
20260508034237 64 270 0.0 2.0 0.00 0.86 0.86 77 1017.6
20260508033734 64 257 1.0 4.0 0.00 0.86 0.86 77 1017.5
20260508033232 65 78 0.0 3.0 0.00 0.86 0.86 77 1017.7
20260508032730 65 99 2.0 4.0 0.00 0.86 0.86 77 1017.6
20260508032227 65 180 2.0 3.0 0.00 0.86 0.86 77 1017.5
20260508031723 65 263 1.0 3.0 0.00 0.86 0.86 77 1017.5
20260508031219 65 286 0.0 3.0 0.00 0.86 0.86 77 1017.8
20260508030716 66 90 0.0 4.0 0.00 0.86 0.86 77 1017.5
20260508030214 66 287 3.0 5.0 0.00 0.86 0.86 76 1017.7
20260508025710 66 221 2.0 10.0 0.00 0.86 0.86 77 1017.3
20260508025207 66 254 4.0 4.0 0.00 0.86 0.86 77 1017.3
20260508024703 66 214 4.0 4.0 0.00 0.86 0.86 77 1017.3
20260508024200 67 304 3.0 5.0 0.00 0.86 0.86 77 1017.2
20260508023656 67 99 0.0 3.0 0.00 0.86 0.86 77 1017.0
20260508023154 67 0 0.0 4.0 0.00 0.86 0.86 77 1017.1
20260508022649 67 345 0.0 5.0 0.00 0.86 0.86 76 1017.2
20260508022147 68 255 5.0 6.0 0.00 0.86 0.86 76 1017.2
20260508021643 68 258 0.0 7.0 0.00 0.86 0.86 76 1016.7
20260508021138 68 168 1.0 5.0 0.00 0.86 0.86 76 1016.8
20260508020637 68 263 3.0 4.0 0.00 0.86 0.86 76 1016.9
20260508020134 68 75 0.0 8.0 0.00 0.86 0.86 76 1016.6
20260508015631 69 230 9.0 16.0 0.00 0.86 0.86 76 1016.3
20260508015128 69 350 0.0 5.0 0.00 0.86 0.86 76 1016.7
20260508014624 69 262 5.0 5.0 0.00 0.86 0.86 77 1016.4
20260508014121 69 264 3.0 5.0 0.00 0.86 0.86 77 1016.4
20260508013617 70 240 5.0 13.0 0.00 0.86 0.86 77 1016.2
20260508013114 70 2 0.0 9.0 0.00 0.86 0.86 79 1016.2
20260508012611 70 291 3.0 7.0 0.00 0.86 0.86 79 1016.0
20260508012108 70 57 2.0 4.0 0.00 0.86 0.86 79 1015.8
20260508011607 70 270 4.0 7.0 0.00 0.86 0.86 78 1016.0
20260508011104 71 0 0.0 8.0 0.00 0.86 0.86 78 1015.6
20260508010600 71 297 6.0 7.0 0.00 0.86 0.86 79 1015.7
20260508010058 71 214 4.0 6.0 0.00 0.86 0.86 79 1015.5
20260508005554 71 226 5.0 11.0 0.00 0.86 0.86 80 1015.2
20260508005051 71 289 3.0 5.0 0.00 0.86 0.86 81 1015.3
20260508004547 71 260 3.0 9.0 0.00 0.86 0.86 80 1015.2
20260508004044 71 263 1.0 6.0 0.00 0.86 0.86 81 1015.1
20260508003540 72 194 3.0 5.0 0.00 0.86 0.86 81 1014.9
20260508003038 72 352 0.0 5.0 0.00 0.86 0.86 80 1014.9
20260508002534 72 282 3.0 3.0 0.00 0.86 0.86 80 1014.7
20260508002032 73 203 2.0 8.0 0.00 0.86 0.86 79 1014.7
20260508001527 73 237 3.0 7.0 0.00 0.86 0.86 78 1014.8
20260508001024 73 308 5.0 9.0 0.00 0.86 0.86 78 1014.5
20260508000520 74 277 6.0 9.0 0.00 0.86 0.86 77 1014.2
20260508000017 74 294 6.0 8.0 0.00 0.86 0.86 77 1014.6
20260507235514 74 240 3.0 7.0 0.00 0.86 0.86 76 1014.2
20260507235011 74 253 4.0 7.0 0.00 0.86 0.86 76 1014.3
20260507234507 75 277 4.0 10.0 0.00 0.86 0.86 75 1014.0
20260507234004 75 233 3.0 8.0 0.00 0.86 0.86 74 1013.8
20260507233500 75 252 11.0 17.0 0.00 0.86 0.86 74 1014.0
20260507233000 76 267 6.0 9.0 0.00 0.86 0.86 74 1013.8
20260507232455 77 273 4.0 9.0 0.00 0.86 0.86 73 1014.0
20260507231953 77 225 4.0 4.0 0.00 0.86 0.86 72 1013.6
20260507231449 78 214 4.0 6.0 0.00 0.86 0.86 71 1013.9
20260507230946 78 245 2.0 9.0 0.00 0.86 0.86 73 1013.9
20260507230443 77 301 4.0 11.0 0.00 0.86 0.86 73 1013.9
20260507225938 77 295 6.0 8.0 0.00 0.86 0.86 72 1013.6
20260507225434 78 254 2.0 6.0 0.00 0.86 0.86 70 1013.5
20260507224931 78 244 7.0 11.0 0.00 0.86 0.86 71 1013.8
20260507224427 78 291 0.0 10.0 0.00 0.86 0.86 73 1013.8
20260507223924 78 229 3.0 11.0 0.00 0.86 0.86 72 1013.8
20260507223420 78 290 3.0 15.0 0.00 0.86 0.86 71 1013.7
20260507222917 79 270 4.0 13.0 0.00 0.86 0.86 72 1013.8
20260507222414 79 262 5.0 7.0 0.00 0.86 0.86 72 1013.8
20260507221910 79 290 0.0 9.0 0.00 0.86 0.86 73 1013.6
20260507221407 79 268 6.0 11.0 0.00 0.86 0.86 73 1013.9
20260507220902 78 263 3.0 11.0 0.00 0.86 0.86 76 1013.7
20260507220401 77 247 6.0 11.0 0.00 0.86 0.86 78 1013.8
20260507215857 77 213 3.0 7.0 0.00 0.86 0.86 78 1013.8
20260507215354 77 275 0.0 10.0 0.00 0.86 0.86 78 1013.4
20260507214851 78 285 3.0 11.0 0.00 0.86 0.86 76 1013.8
20260507214349 78 235 10.0 13.0 0.00 0.86 0.86 76 1013.7
20260507213844 78 240 5.0 13.0 0.00 0.86 0.86 75 1013.8
20260507213341 79 219 5.0 10.0 0.00 0.86 0.86 74 1013.6
20260507212838 78 254 7.0 10.0 0.00 0.86 0.86 75 1013.5
20260507212334 79 251 7.0 9.0 0.00 0.86 0.86 75 1013.4
20260507211830 79 235 6.0 12.0 0.00 0.86 0.86 77 1013.7
20260507211327 78 292 5.0 9.0 0.00 0.86 0.86 77 1013.7
20260507210824 78 276 2.0 5.0 0.00 0.86 0.86 77 1013.4
20260507210321 79 270 5.0 10.0 0.00 0.86 0.86 76 1013.4
20260507205817 79 287 3.0 6.0 0.00 0.86 0.86 77 1013.4